Regional Weather Roundup
Issued by NWS Kansas City/Pleasant Hill, MO

Home | Current Version | Previous Version | Graphics & Text | Print | Product List | Glossary Off
Versions: 1 2 3 4 5 6 7 8 9 10 11 12 13 14 15 16 17 18 19 20 21 22 23 24 25 26 27 28 29 30 31 32 33 34 35 36 37 38 39 40 41 42 43 44 45 46 47 48 49 50

000
ASUS43 KEAX 050311
RWREAX

WEATHER ROUNDUP FOR EASTERN KANSAS AND NORTHWEST MISSOURI
NATIONAL WEATHER SERVICE KANSAS CITY/PLEASANT HILL MO
1000 PM CDT SAT JUL 04 2015

KSZ040-057-103>105-MOZ028-029-037-043-050400-
...KANSAS CITY METROPOLITAN AREA...

CITY           SKY/WX    TMP DP  RH WIND       PRES   REMARKS
K.C. INTL      PTCLDY    71  64  78 SE6       29.97R
K.C. DOWNTOWN  PTCLDY    77  63  61 SE7       29.96R
LEES SUMMIT    PTCLDY    74  64  71 CALM      29.98R
OLATHE - IXD   PTCLDY    73  64  73 CALM      29.98R
OLATHE - OJC   PTCLDY    73  63  70 SE3       29.97R
LAWRENCE       CLEAR     69  64  84 E8        29.96R

$$

MOZ001>008-011>017-020>025-030>033-038>040-044>046-053-054-050400-
...NORTHERN AND CENTRAL MISSOURI...

CITY           SKY/WX    TMP DP  RH WIND       PRES   REMARKS
ST. JOSEPH     PTCLDY    73  64  73 SE7       29.95R
MOSBY          PTCLDY    70  64  83 CALM      29.97R
HARRISONVILLE  PTCLDY    75  66  73 E6        29.99R
WARRENSBURG    PTCLDY    70  64  83 E7        29.97R
WHITEMAN AFB   PTCLDY    72  67  83 SE3       29.97R
CLINTON        PTCLDY    73  70  88 E5        29.98R
SEDALIA        PTCLDY    73  65  75 SE6       30.00R
WARSAW         FAIR      72  66  83 CALM      30.00R
CHILLICOTHE      N/A     70  65  84 CALM      29.99R
KIRKSVILLE     CLEAR     67  62  84 SE3       30.01R

$$

MOZ041-047>049-056>058-063>065-088>090-097-050400-
...EASTERN AND SOUTHERN MISSOURI...

CITY           SKY/WX    TMP DP  RH WIND       PRES   REMARKS
ST. LOUIS INTL PTCLDY    75  62  64 SE3       30.01R HAZE
SPIRIT OF STL  CLEAR     71  66  84 CALM      30.00R
COLUMBIA       CLEAR     73  66  78 E6        30.01R
JEFFERSON CITY CLEAR     72  66  81 E5        29.99R
MEXICO         CLEAR    N/A N/A N/A CALM      29.99S
ROLLA          CLEAR     70  66  87 E5        30.01R
LEBANON        CLEAR     73  68  83 MISG      30.02R
OSAGE BEACH    CLEAR     73  66  78 E5        30.00R
SPRINGFIELD    MOCLDY    74  69  85 S3        29.99R
BRANSON        CLEAR     73  68  83 CALM      30.02R
JOPLIN         CLEAR     76  67  73 E8        29.96R HAZE
WEST PLAINS    CLEAR     72  68  87 SE3       30.03R

$$

IAZ060-094-KSZ022-034>040-054-083-096-NEZ052-066-093-050400-
...KANSAS...SOUTHEAST NEBRASKA AND IOWA...

CITY           SKY/WX    TMP DP  RH WIND       PRES   REMARKS
TOPEKA         CLEAR     73  64  73 SE7       29.95R
MANHATTAN      CLEAR     75  65  70 CALM      29.92R
EMPORIA        CLEAR     75  64  68 SE8       29.94R
CHANUTE        PTCLDY    76  67  73 E7        29.95R
WICHITA        PTCLDY    81  65  58 SE7       29.91R
OMAHA          PTCLDY    73  63  70 S8        29.92R
LINCOLN        CLEAR     76  65  68 SE10      29.92R
FALLS CITY     CLEAR     71  65  81 SE6       29.94R
LAMONI         PTCLDY    72  62  71 SE6       29.98R
DES MOINES     MOCLDY    73  60  63 SE7       29.95R

$$




USA.gov is the U.S. government's official web portal to all federal, state and local government web resources and services.